OIBL  Bandar Lengeh Airport

Add Bookmark

Bandar Lengeh, Iran

Status IATA
Operational BDH
Latitude Longitude
26° 31' 55" N 54° 49' 29" E
26.532000 54.824799
Local (DST + 5) UTC (GMT + 4)
Nov 22, 2014 01:39 Nov 22, 2014 10:09
Sunrise-Sunset Local UTC
Begin Civil Twilight 05:49 02:19
Sunrise 06:13 02:43
Sunset 04:59 13:29
End Civil Twilight 05:24 13:54

Current Weather

METAR Observed VFR
OIBL 220900Z 23012KT CAVOK 28/19 Q1015 Sat, Nov 22, 2014 @ 09:00 UTC
(1 Hour, 9 Minutes ago)
Visual Flight Rules
Wind Visibility Clouds Conditions
230° at 12 knots (22 kph) 10 km or more
  • Clear skies
  • No significant weather
Temperatures Readings Precipitation
Current Temp 28°C (82°F)
Dewpoint 19°C (66°F)
Heat Index 29°C (84°F)
Humidity 58%
Altimeter 29.97"Hg
Sea Level Pressure 1015mb
Field Elevation 45.93'
None Recorded

Additional weather within a 92.6km radius of OIBL

Map ICAO Location
OIBS 74.8km S (202°)
OIBA 75.7km S (164°)
OIBK 83.9km W (270°)

24 Hour Weather History

Loading
-

24 Hour Weather Graphs

Loading
-

CheckWX.com is intended as a tool to help pilots better visualize weather data. It is not intended as a substitute for an official weather briefing obtained from a Flight Service Station. CheckWX.com does not meet the FAA requirements for an official pre-flight weather briefing. Therefore, it's important that pilots still call and obtain an official FSS pre-flight weather briefing.